EHI
14 15 14 12 9 5 3 3 2 1 2 4 5 5 6 5 4 3 3 3 3 2 1 0 0 0 0 0 0 0 0 0 0 0 0 0 0 0
14 14 14 12 9 6 4 3 3 2 3 5 7 7 6 4 4 4 4 4 4 3 1 0 0 0 0 0 0 0 0 0 0 0 0 0 0 0
14 14 13 12 10 7 5 4 3 3 4 6 8 8 8 7 7 7 5 4 4 3 2 1 0 0 0 0 0 0 0 0 0 0 0 0 0 0
13 13 11 11 10 8 6 4 3 3 4 6 7 7 9 11 12 10 5 3 2 2 2 2 1 0 0 0 0 0 0 0 0 0 0 0 0 0
12 13 12 11 12 11 9 6 5 5 5 5 5 5 7 11 15 12 8 5 2 2 3 2 1 0 0 0 0 0 0 0 0 0 0 0 0 0
14 14 15 15 15 14 11 8 7 7 6 5 5 4 4 10 15 15 12 9 6 5 5 4 1 0 0 0 0 0 0 0 0 0 0 0 0 0
16 17 17 16 15 13 9 7 8 8 8 5 5 5 5 9 13 13 12 12 11 9 9 7 4 2 2 1 0 0 0 0 0 0 0 0 0 0
19 18 16 14 13 12 9 7 6 7 8 7 7 7 8 11 13 11 11 13 13 13 12 11 8 6 5 3 1 0 0 0 0 0 0 0 0 0
19 19 15 13 13 15 13 10 9 8 8 8 8 10 12 14 14 13 13 14 15 14 13 12 10 8 6 3 1 0 0 0 0 0 0 0 0 0
18 18 16 13 14 15 14 12 13 11 7 5 7 9 11 11 12 12 13 13 13 12 12 13 12 9 6 3 1 0 0 0 0 0 0 0 0 0
19 18 17 14 11 11 11 12 13 12 8 4 4 5 6 5 6 9 10 10 10 11 12 15 15 12 8 4 1 0 0 0 0 0 0 0 0 0
18 17 14 10 7 6 8 10 11 11 9 7 5 4 5 5 6 9 11 10 10 11 13 14 15 13 10 6 4 2 1 0 0 0 0 0 0 0
14 13 9 4 2 2 4 7 9 11 12 11 9 9 11 12 12 12 12 12 13 13 12 12 12 11 10 8 7 4 2 1 0 0 0 0 0 0
9 8 4 1 0 0 1 3 5 8 12 13 13 14 17 18 18 16 14 14 14 13 12 11 10 9 9 9 8 6 4 3 1 1 1 0 0 0
5 4 1 0 0 0 0 1 2 5 10 13 14 15 18 20 21 18 16 15 14 13 11 10 9 8 8 7 7 7 6 5 3 3 2 1 0 0
1 1 1 0 1 1 1 2 3 6 10 12 14 15 16 18 20 18 16 14 12 11 10 8 8 8 7 6 6 7 7 6 5 4 4 3 1 0
0 0 1 1 2 3 4 5 6 8 10 12 13 14 15 15 16 16 14 11 9 9 9 8 8 8 7 6 6 6 6 6 6 6 6 5 3 2
0 0 1 2 4 5 6 6 6 7 9 12 14 15 16 15 14 14 12 10 9 9 8 8 7 8 7 6 6 6 6 6 6 6 6 6 5 3
0 0 1 2 5 6 7 6 6 8 10 12 15 17 17 15 14 13 11 9 9 9 8 7 7 7 7 6 6 6 6 6 6 6 6 5 4 3
0 0 1 2 4 7 9 8 8 10 12 13 14 16 15 15 13 11 8 7 7 8 8 7 6 6 6 6 6 5 4 4 5 6 6 4 2 1
1 1 2 3 5 8 10 10 9 10 11 12 12 12 13 13 12 9 7 6 6 7 7 5 4 4 5 6 6 5 3 1 2 4 4 3 2 1
3 3 3 5 6 8 10 9 8 8 9 10 10 9 10 10 9 7 6 6 6 6 5 4 3 3 4 6 6 5 2 0 0 1 2 2 1 1
5 4 4 5 6 7 8 8 7 7 8 9 8 8 8 8 8 7 6 6 6 5 4 3 2 3 4 6 6 5 2 0 0 0 0 1 1 1
Wind_Speed
1 1 1 1 1 1 0 1 1 1 1 2 1 2 2 3 6 4 4 8 9 8 8 8 7 6 6 6 5 4 4 3 2 2 2 2 2 2
0 0 1 1 1 1 1 1 1 1 1 1 1 2 2 4 6 4 4 9 9 10 10 9 8 8 7 7 6 6 5 4 3 2 2 2 2 3
1 1 0 1 1 1 1 1 1 0 1 1 1 2 2 2 3 3 4 5 6 11 11 11 10 9 9 8 7 7 6 5 4 3 3 3 3 3
1 0 0 1 0 1 2 1 1 0 1 1 1 2 2 3 3 3 4 5 4 9 12 12 11 11 10 9 8 7 6 6 5 4 3 3 3 3
1 1 1 0 1 1 1 1 2 1 1 2 2 2 1 2 2 3 3 2 4 6 10 10 11 11 10 9 8 8 7 6 6 5 4 3 3 2
1 1 1 1 1 2 2 2 2 1 1 2 2 2 2 2 2 2 2 2 2 2 4 6 8 10 10 9 8 8 8 7 7 6 5 4 3 3
1 1 1 1 1 0 1 1 1 2 1 1 2 1 1 1 2 2 1 1 1 1 1 2 4 4 6 8 9 9 9 8 7 7 6 5 4 4
2 1 2 2 3 3 2 0 1 2 2 2 2 1 1 1 1 2 1 1 1 1 1 2 3 4 4 5 8 10 10 9 8 7 6 6 5 5
2 2 3 2 3 3 3 3 3 3 4 3 2 2 1 1 1 2 2 2 2 2 1 2 1 2 3 4 10 12 11 10 9 8 7 6 6 6
3 3 3 1 2 1 3 3 3 3 4 3 3 3 2 1 2 2 3 3 3 2 2 2 2 2 2 2 9 11 11 11 10 9 8 7 7 7
4 3 3 2 2 2 2 3 3 3 3 3 4 4 3 3 2 2 2 2 3 2 2 2 2 1 1 2 5 10 11 10 10 9 8 7 7 6
3 3 3 3 3 3 3 4 4 4 3 2 3 4 5 5 6 4 3 3 3 2 2 1 1 1 1 2 2 4 5 8 10 9 8 8 7 4
3 2 2 3 3 4 4 5 5 4 3 4 4 4 4 4 5 5 5 4 3 3 2 1 1 1 1 1 1 3 4 4 5 6 8 9 9 7
3 2 1 4 5 6 5 6 5 4 4 4 4 4 4 4 4 5 6 5 5 4 3 2 2 2 2 2 2 2 3 3 4 4 5 7 8 9
2 2 2 5 4 5 6 6 5 4 4 5 4 4 3 3 3 3 4 4 5 5 4 4 4 3 3 3 3 2 2 2 3 4 4 4 5 5
4 3 3 5 5 5 4 4 5 5 4 4 3 3 2 2 2 2 2 2 3 3 3 4 4 3 3 3 3 3 2 3 3 3 3 3 3 4
2 2 2 3 3 4 4 4 4 4 4 4 3 3 2 2 2 2 2 2 2 2 2 2 3 3 3 3 3 3 3 2 3 3 3 3 3 4
3 3 4 4 5 5 5 4 4 4 4 4 4 3 3 3 2 2 2 2 3 3 2 2 2 2 2 3 4 4 3 2 2 3 3 3 3 3
4 5 5 5 5 5 4 4 4 4 4 4 4 4 3 3 2 2 2 3 3 3 3 2 3 3 4 4 4 4 3 3 3 3 3 3 4 3
5 6 6 5 4 4 4 4 3 3 3 3 3 3 3 3 3 3 3 4 3 3 3 3 3 3 4 4 3 3 5 4 3 3 3 3 2 2
6 6 6 5 5 4 3 3 3 2 2 2 3 3 3 3 3 3 3 4 4 3 4 4 4 4 2 2 2 2 2 4 4 3 3 3 3 3
6 5 5 4 3 3 2 2 2 2 2 2 3 3 3 3 4 4 4 4 4 4 4 3 3 3 3 3 4 3 3 2 3 4 4 3 3 4
5 5 4 3 3 2 2 2 2 2 2 2 2 3 3 3 3 4 4 4 3 3 3 3 3 3 3 3 4 3 4 4 3 2 2 3 4 4
Wind_Direction
256 297 308 315 331 307 330 156 193 201 193 190 168 156 136 128 159 174 166 185 189 191 193 195 194 191 190 188 189 190 192 198 214 237 252 275 281 278
207 42 316 324 330 341 323 290 273 206 189 176 175 152 148 160 169 184 180 181 193 193 195 197 198 200 199 197 195 195 196 199 209 226 238 256 274 280
221 155 180 333 332 313 305 303 324 347 173 166 153 152 151 148 163 190 180 181 191 201 201 202 201 202 204 204 204 203 202 202 205 216 235 250 265 276
216 185 248 245 307 314 305 314 298 282 167 190 183 168 183 172 175 208 202 200 194 198 201 205 204 202 203 204 204 203 203 202 203 214 229 241 255 266
210 204 207 206 243 284 289 290 280 260 215 208 207 188 185 191 183 221 232 229 218 183 194 203 204 200 201 202 201 201 203 204 204 210 219 227 239 252
218 208 199 206 224 259 253 268 271 274 241 236 217 200 195 197 183 219 236 238 243 198 189 195 199 200 201 199 197 198 200 201 203 205 209 213 217 223
217 211 182 136 110 263 264 266 265 259 249 238 234 211 209 190 210 236 233 232 222 211 177 198 180 190 197 203 202 201 197 196 198 202 205 207 209 212
217 210 198 197 194 194 197 194 262 243 253 260 258 232 225 209 215 245 250 253 259 219 203 236 176 189 194 192 194 193 193 193 195 199 202 206 211 215
215 230 245 223 198 205 211 217 231 237 231 241 252 259 251 250 243 265 269 257 251 242 221 248 211 206 196 187 184 188 189 190 193 197 202 209 215 218
221 228 236 239 244 230 245 233 227 243 236 227 236 252 248 249 239 247 258 260 253 243 211 236 228 229 226 180 184 184 188 189 191 196 201 208 215 220
232 233 225 211 222 224 246 257 248 249 242 227 218 227 227 235 237 259 261 254 259 241 213 214 230 230 228 190 191 191 190 191 192 197 202 207 214 218
238 224 220 214 216 228 231 242 247 245 246 244 237 238 229 228 223 220 234 249 264 254 227 214 223 204 250 221 182 183 196 202 200 202 205 207 206 207
250 235 204 183 211 243 246 246 241 241 243 240 237 230 224 219 211 212 215 224 240 248 227 197 223 220 222 249 205 189 186 184 192 204 208 208 205 202
270 269 210 201 225 240 245 246 245 245 245 245 243 234 224 218 213 208 209 212 216 231 238 217 226 228 237 249 244 216 197 183 179 192 195 198 209 217
284 297 251 232 242 248 245 243 243 245 245 243 247 245 234 217 208 207 205 209 219 233 229 223 220 221 225 231 234 228 217 202 183 182 187 188 195 198
259 260 237 236 246 250 250 238 231 240 245 248 249 247 232 217 217 223 224 211 220 230 222 211 216 218 232 238 231 236 220 204 192 188 185 194 201 200
224 240 243 238 235 230 230 228 226 227 233 245 257 264 251 236 232 213 220 233 233 237 227 222 215 217 221 224 231 231 226 211 192 187 189 202 206 201
202 237 243 242 239 237 233 227 222 227 228 223 230 235 234 235 233 223 210 232 248 245 234 219 203 201 231 247 229 233 230 222 212 206 203 207 218 211
216 243 245 243 242 244 244 237 227 220 218 222 225 228 226 229 230 230 230 237 245 244 229 216 207 204 222 239 236 220 222 226 214 214 215 218 223 214
232 243 248 247 241 242 246 244 236 220 214 224 227 225 225 230 232 229 230 235 243 247 238 222 218 214 222 234 234 234 222 220 211 218 222 220 222 211
242 245 248 250 252 245 238 241 237 225 224 234 242 232 226 229 238 241 239 237 241 246 243 233 226 222 218 214 232 239 232 227 223 216 214 208 214 217
247 252 255 254 254 254 246 244 241 234 225 237 251 247 241 238 237 238 241 236 236 249 255 234 200 206 212 218 231 234 240 238 246 245 244 228 211 213
245 253 256 257 255 256 251 251 254 247 236 242 254 260 256 249 246 243 240 241 240 246 260 252 216 214 226 226 233 235 232 224 221 229 261 258 229 222